FW8616 Weather Reports


time (UTC)temp
F
wind
direction
speed
knots
gust
knots
rain 1hr
in
rain 24hr
in
rain mn
in
humidity
%
barometer
mb
20260506014537 39 0 0.0 0.9 0.00 0.00 0.00 80 1007.7
20260506013043 39 82 0.0 1.7 0.00 0.00 0.00 78 1007.7
20260506011540 39 59 1.7 2.6 0.00 0.00 0.00 80 1007.4
20260506010040 39 101 1.7 2.6 0.00 0.00 0.00 80 1007.2
20260506004542 39 49 1.7 4.3 0.00 0.00 0.00 78 1007.2
20260506003038 40 78 3.5 6.1 0.00 0.00 0.00 78 1007.0
20260506001549 40 80 3.5 7.8 0.00 0.00 0.00 76 1007.0
20260506000057 40 53 5.2 8.7 0.00 0.00 0.00 77 1006.9
20260505234544 41 51 4.3 8.7 0.00 0.00 0.00 75 1006.9
20260505233048 41 43 5.2 9.6 0.00 0.00 0.00 75 1006.8
20260505231546 42 40 7.0 10.4 0.00 0.00 0.00 75 1006.6
20260505230045 42 59 8.7 11.3 0.00 0.00 0.00 74 1006.7
20260505224548 43 53 7.8 11.3 0.00 0.00 0.00 74 1006.8
20260505223044 45 38 4.3 7.0 0.00 0.00 0.00 70 1006.9
20260505221547 46 254 2.6 7.0 0.00 0.00 0.00 65 1006.8
20260505220049 46 308 3.5 8.7 0.00 0.00 0.00 65 1006.5
20260505214545 46 286 6.1 9.6 0.00 0.00 0.00 65 1006.6
20260505213044 46 293 4.3 8.7 0.00 0.00 0.00 64 1006.5
20260505211607 46 279 7.0 11.3 0.00 0.00 0.00 63 1006.6
20260505210046 46 294 5.2 10.4 0.00 0.00 0.00 66 1006.5
20260505204556 46 277 7.0 11.3 0.00 0.00 0.00 64 1006.6
20260505203039 45 274 3.5 7.0 0.00 0.00 0.00 65 1006.4
20260505201540 45 312 3.5 8.7 0.00 0.00 0.00 63 1006.5
20260505200039 45 294 5.2 8.7 0.00 0.00 0.00 62 1006.2
20260505194537 45 300 4.3 7.8 0.00 0.00 0.00 61 1005.9
20260505193044 46 293 2.6 11.3 0.00 0.00 0.00 63 1005.8
20260505191543 46 271 3.5 12.2 0.00 0.00 0.00 64 1005.8
20260505190040 46 278 5.2 13.0 0.00 0.00 0.00 65 1005.5
20260505184542 46 325 7.0 11.3 0.00 0.00 0.00 68 1005.6
20260505183044 46 317 5.2 13.0 0.00 0.00 0.00 64 1005.4
20260505181604 46 282 3.5 11.3 0.00 0.00 0.00 66 1005.3
20260505180052 46 315 6.1 12.2 0.00 0.00 0.00 66 1004.9
20260505174544 46 320 7.0 13.0 0.00 0.00 0.00 66 1005.0
20260505173038 45 298 9.6 12.2 0.00 0.00 0.00 70 1004.7
20260505171541 46 307 6.1 12.2 0.00 0.00 0.00 69 1004.7
20260505170037 46 270 4.3 11.3 0.00 0.00 0.00 69 1004.7
20260505164537 46 329 6.1 13.9 0.00 0.00 0.00 70 1004.5
20260505163040 46 302 4.3 12.2 0.00 0.00 0.00 71 1004.1
20260505161538 46 350 4.3 11.3 0.00 0.00 0.00 73 1004.3
20260505153043 47 326 8.7 12.2 0.00 0.00 0.00 73 1003.5
20260505151541 47 321 7.0 12.2 0.00 0.00 0.00 71 1003.1
20260505124536 45 314 8.7 13.9 0.00 0.00 0.00 88 1001.4
20260505123051 46 10 8.7 13.0 0.00 0.00 0.00 89 1000.8
20260505121540 47 319 4.3 7.8 0.00 0.00 0.00 91 1000.3
20260505120059 47 289 6.1 8.7 0.00 0.00 0.00 91 1000.4
20260505114538 48 304 6.1 9.6 0.00 0.00 0.00 91 1000.4
20260505113048 48 258 7.8 10.4 0.00 0.00 0.00 92 999.8
20260505111543 50 331 6.1 13.0 0.00 0.00 0.00 91 999.3
20260505110105 51 319 8.7 14.8 0.00 0.00 0.00 90 998.8
20260505101537 53 290 2.6 9.6 0.00 0.00 0.00 88 998.1
20260505100038 54 277 7.0 9.6 0.00 0.00 0.00 87 997.9
20260505094537 54 277 3.5 8.7 0.00 0.00 0.00 87 997.5
20260505093043 54 292 3.5 8.7 0.00 0.00 0.00 87 997.3
20260505091551 55 238 3.5 9.6 0.00 0.00 0.00 86 997.3
20260505090039 55 240 4.3 9.6 0.00 0.00 0.00 86 997.1
20260505084539 55 245 3.5 12.2 0.00 0.00 0.00 85 997.1
20260505083049 55 219 3.5 8.7 0.00 0.00 0.00 85 997.1
20260505081537 56 220 4.3 9.6 0.00 0.00 0.00 84 997.3
20260505080038 56 262 5.2 11.3 0.00 0.00 0.00 83 997.5
20260505074539 57 252 5.2 10.4 0.00 0.00 0.00 82 997.8
20260505073037 57 278 6.1 10.4 0.00 0.00 0.00 82 998.0
20260505071538 57 282 6.1 10.4 0.00 0.00 0.00 79 998.0
20260505070037 58 280 8.7 20.0 0.00 0.00 0.00 76 998.4
20260505064554 59 283 13.9 19.1 0.00 0.01 0.00 79 998.8
20260505063041 58 315 9.6 18.2 0.00 0.01 0.00 79 998.6
20260505061539 58 292 10.4 19.1 0.00 0.01 0.00 80 998.1
20260505060039 58 303 10.4 18.2 0.00 0.01 0.00 80 998.1
20260505054547 58 246 10.4 17.4 0.00 0.01 0.00 80 998.2
20260505053037 57 294 7.8 16.5 0.00 0.01 0.00 81 998.2
20260505051537 57 230 7.0 14.8 0.00 0.01 0.00 81 998.4
20260505041539 57 242 7.8 16.5 0.00 0.01 0.00 79 998.2
20260505040047 57 238 8.7 14.8 0.00 0.01 0.00 79 998.2
20260505034601 57 223 7.8 13.0 0.00 0.01 0.01 78 998.5
20260505033042 58 263 7.8 15.6 0.00 0.01 0.01 77 998.8
20260505031538 58 202 7.0 12.2 0.00 0.01 0.01 76 998.7
20260505030048 58 229 7.8 17.4 0.00 0.01 0.01 74 998.8
20260505024542 58 218 7.8 14.8 0.00 0.01 0.01 74 998.9
20260505023043 59 202 8.7 18.2 0.00 0.01 0.01 72 998.9
20260505021540 59 237 9.6 18.2 0.00 0.01 0.01 71 998.9
20260505020052 59 219 9.6 15.6 0.00 0.01 0.01 69 999.1